Regional Weather Roundup
Issued by NWS

Home | Current Version | Previous Version | Text Only | Print | Product List | Glossary On
Versions: 1 2 3 4 5 6 7 8 9 10 11 12 13 14 15 16 17 18 19 20 21 22 23 24 25 26 27 28 29 30 31 32 33 34 35 36 37 38 39 40 41 42 43 44 45 46 47 48 49 50
630
ASUS45 KCYS 240810
RWRWY

WYOMING REGIONAL WEATHER ROUNDUP
NATIONAL WEATHER SERVICE CHEYENNE WY
200 AM MDT TUE OCT 24 2017

NOTE:  "FAIR" INDICATES FEW OR NO CLOUDS BELOW 12,000 FEET
WITH NO SIGNIFICANT WEATHER AND/OR OBSTRUCTIONS TO VISIBILITY.

WYZ001-240900-
YELLOWSTONE NATIONAL PARK

CITY           SKY/WX    TMP DP  RH WIND       PRES   REMARKS
LK YELLOWSTONE   N/A     22  20  92 CALM      30.72R
W YELLOWSTONE  NOT AVBL

$$
WYZ002>013-054>058-071-098>099-240900-
NORTHERN WYOMING

CITY           SKY/WX    TMP DP  RH WIND       PRES   REMARKS
JACKSON        FAIR      24  21  88 NE5       30.69S WCI  18
CODY           FAIR      30  19  63 CALM      30.58R
GREYBULL       FAIR      31  20  63 SE3       30.57R
WORLAND        FAIR      32  20  61 SE7       30.56F WCI  26
SHERIDAN       FAIR      31  21  66 S5        30.53F WCI  26
BUFFALO        FAIR      34  15  46 W5        30.55S WCI  30
GILLETTE       FAIR      33  19  56 W10       30.53S WCI  25
HULETT         FAIR      37  21  52 W6        30.51S WCI  33
NEWCASTLE      FAIR      32  19  59 N3        30.50S

$$
WYZ014>020-022>026-101>103-240900-
CENTRAL WYOMING

CITY           SKY/WX    TMP DP  RH WIND       PRES   REMARKS
BIG PINEY      FAIR      31  19  61 N13       30.65S WCI  21
PINEDALE       FAIR      34  21  60 N12G17    30.64S WCI  25
DUBOIS         FAIR      36  18  48 NW16G23   30.61F WCI  26
LANDER         FAIR      33  21  61 CALM      30.58S
RIVERTON       FAIR      34  18  52 SW7       30.59S WCI  28
CASPER         FAIR      27  17  66 W10       30.57F WCI  17
DOUGLAS        FAIR      25  18  74 CALM      30.56F

$$
WYZ021-027>030-104>119-240900-
SOUTHERN WYOMING

CITY           SKY/WX    TMP DP  RH WIND       PRES   REMARKS
EVANSTON       FAIR      38  25  59 VRB3      30.70S
KEMMERER       FAIR      36  23  60 NW10      30.67F WCI  28
FORT BRIDGER   FAIR      37  23  57 W14       30.70S WCI  28
ROCK SPRINGS   FAIR      33  18  53 W10       30.64F WCI  25
DIXON          FAIR      26  21  79 CALM      30.65F
RAWLINS        FAIR      24  14  65 N7        30.61S WCI  16
SARATOGA       FAIR      21  18  86 S7        30.61F WCI  13
LARAMIE        FAIR      22  12  65 NE6       30.57S WCI  14
CHEYENNE       FAIR      31  15  52 W8        30.55S WCI  23
TORRINGTON     FAIR      35  19  52 NW13      30.51S WCI  26
PINE BLUFFS    FAIR      32  19  59 MISG      30.54S

$$




USA.gov is the U.S. government's official web portal to all federal, state and local government web resources and services.